Location: *
(51.2167°N, 10.0667°E)
Time: 11:51:42
(UTC+00:00)

RESURS DK-1 - Pass Details

Date: 12 December 2019
Orbit: 554 x 564 km, 69.9° (Epoch: 27 January)

Event Time Altitude Azimuth Distance (km) Brightness Sun altitude
Rises 16:23:56 0° 222° (SW) 2,726 7.2 -10.5°
Reaches altitude 10° 16:26:09 10° 226° (SW) 1,836 6.3 -10.8°
Maximum altitude 16:30:11 57° 306° (NW) 664 2.9 -11.4°
Drops below altitude 10° 16:34:16 10° 26° (NNE) 1,854 4.6 -12.0°
Enters shadow 16:34:17 10° 26° (NNE) 1,860 4.6 -12.0°
